Location: Unspecified
(0.0000°N, 0.0000°E)
Time: 15:38:05
(UTC+00:00)

Amateur Radio Satellites - All Passes

Search period start: 22 May 2017 15:08
Search period end: 23 May 2017 15:08
Location: Unspecified, 0.0000°N, 0.0000°E

Satellite Date Start Highest point End Downlink Frequencies (MHz)
Time Altitude Azimuth
ITUPSAT 1 22 May 15:12:46 15:17:08 36° 283° (WNW) 15:21:31 437.325
CUBESAT XI-V 22 May 15:14:40 15:15:46 11° 102° (ESE) 15:16:51 437.345
AO-85 22 May 15:29:41 15:34:05 68° 69° (ENE) 15:38:52 145.980
BEESAT 22 May 15:52:34 15:54:02 11° 283° (WNW) 15:55:30 436.000
KKS-1 22 May 16:08:07 16:12:26 54° 102° (ESE) 16:16:47 437.445
JUGNU 22 May 16:12:41 16:15:36 14° 191° (SSW) 16:18:31 437.505
MOZHAYETS 4 22 May 16:19:57 16:20:06 10° 282° (WNW) 16:20:17
AO-7 22 May 16:20:24 16:27:17 30° 253° (WSW) 16:34:11 .
BEESAT 3 22 May 16:21:24 16:25:17 67° 68° (ENE) 16:29:07 437.485
SRMSAT 22 May 16:38:40 16:44:04 36° 199° (SSW) 16:49:30 437.500
CUBESAT XI-V 22 May 16:48:42 16:52:51 34° 282° (WNW) 16:57:00 437.345
STARS 22 May 16:52:55 16:57:17 79° 101° (E) 17:01:43 437.465
XW-2D 22 May 17:18:11 17:21:24 27° 79° (ENE) 17:24:36 145.860 - 145.880
DOVE 4 22 May 17:20:39 17:25:49 74° 79° (ENE) 17:30:40 437.250
PCSat 22 May 17:22:13 17:25:59 19° 110° (ESE) 17:29:43 145.827
XW-2B 22 May 17:25:45 17:29:11 34° 79° (E) 17:32:37 145.730 - 145.750
BEESAT 2 22 May 17:27:27 17:31:16 47° 249° (WSW) 17:35:04 435.950
XW-2C 22 May 17:38:53 17:42:35 59° 79° (E) 17:46:17 145.795 - 145.815
XW-2F 22 May 17:41:39 17:45:21 62° 79° (E) 17:49:03 145.980 - 146.000
CUTE-I 22 May 17:47:57 17:53:14 63° 77° (ENE) 17:58:28 437.470
NUDT-PHONESAT 22 May 17:55:55 17:59:36 82° 79° (E) 18:03:16 437.300
KAITUO 1B 22 May 17:57:32 18:01:15 89° 78° (ENE) 18:04:58 145.475/437.950
CUTE 1.7 + AOD 2 22 May 18:06:29 18:07:18 10° 78° (ENE) 18:08:09 437.475
LilacSat-2 22 May 18:11:38 18:15:05 34° 259° (WSW) 18:18:33 437.200
ISS 22 May 18:14:07 18:16:37 20° 126° (SE) 18:19:06 437.550
Tancredo 1 22 May 18:28:35 18:31:39 71° 124° (SE) 18:34:42 437.200
SRMSAT 22 May 18:30:07 18:33:43 16° 193° (SSW) 18:37:20 437.500
NO-84 22 May 18:49:40 18:52:16 28° 57° (ENE) 18:54:47 435.350 FM
SEEDS 22 May 19:01:53 19:05:52 41° 79° (ENE) 19:09:51 437.485
PCSat 22 May 19:04:33 19:09:06 28° 289° (WNW) 19:13:39 145.827
HO-68 22 May 19:08:11 19:15:22 85° 76° (ENE) 19:22:31 435.675
M-CUBED/EXP-1 PRIME 22 May 19:10:05 19:10:44 10° 107° (ESE) 19:11:23 437.505
AO-73 22 May 19:27:03 19:28:39 12° 78° (ENE) 19:30:14 145.935
CUBEBUG 2 22 May 19:27:06 19:31:16 65° 79° (ENE) 19:35:22 437.445
STRAND 1 22 May 19:28:54 19:33:49 47° 282° (WNW) 19:38:46 437.568
ZACube-1 22 May 19:36:40 19:39:43 20° 78° (ENE) 19:42:45 437.345
CUTE 1.7 + AOD 2 22 May 19:39:11 19:42:53 29° 259° (W) 19:46:33 437.475
XW-2A 22 May 19:42:45 19:45:14 20° 259° (WSW) 19:47:43 145.665 - 145.685
UWE-3 22 May 19:47:34 19:51:42 66° 78° (ENE) 19:55:46 435.000/436.395/437.385
ISS 22 May 19:51:29 19:52:54 12° 306° (NW) 19:54:20 437.550
JUGNU 22 May 19:53:29 19:55:51 12° 170° (S) 19:58:12 437.505
AAUSAT CUBESAT 2 22 May 20:16:04 20:19:58 38° 259° (WSW) 20:23:51 437.432
SRMSAT 22 May 20:23:29 20:23:55 10° 183° (S) 20:24:22 437.500
SO-50 22 May 20:26:36 20:29:24 16° 113° (ESE) 20:32:11 436.795
Oscar 11 22 May 20:39:26 20:43:43 68° 259° (W) 20:47:59 .
M-CUBED/EXP-1 PRIME 22 May 20:42:56 20:44:56 15° 285° (WNW) 20:46:59 437.505
EO-88 22 May 20:57:47 21:00:42 23° 79° (E) 21:03:36 145.990 - 145.960
AO-73 22 May 21:01:19 21:04:37 23° 258° (WSW) 21:07:57 145.935
ZACube-1 22 May 21:13:30 21:15:44 14° 258° (WSW) 21:17:59 437.345
TIGRISAT 22 May 21:15:28 21:19:42 34° 102° (ESE) 21:23:56 435.000
DELFI C3 22 May 21:17:37 21:21:38 83° 76° (ENE) 21:25:37 145.870
JUGNU 22 May 21:40:46 21:45:33 25° 162° (SSE) 21:50:19 437.505
PRISM 22 May 21:43:47 21:47:44 54° 282° (WNW) 21:51:42 437.425
FO-29 22 May 21:45:09 21:52:17 86° 103° (ESE) 22:00:05 435.910
UNISAT 6 22 May 21:45:16 21:49:56 82° 284° (WNW) 21:54:40 437.425
LO-87 22 May 21:57:34 21:59:29 14° 79° (E) 22:01:22 145.935 - 145.965
SO-50 22 May 22:05:44 22:09:38 26° 292° (WNW) 22:13:28 436.795
SRMSAT 22 May 22:12:19 22:14:19 12° 172° (S) 22:16:18 437.500
AIST 2D 22 May 22:22:44 22:25:20 19° 101° (E) 22:27:56 435.315
POLYITAN 1 22 May 22:28:11 22:28:42 10° 102° (ESE) 22:29:13 437.675
QB50P2 22 May 22:34:33 22:37:02 15° 102° (ESE) 22:39:33 145.880/145.840
DUCHIFAT 1 22 May 22:40:15 22:41:55 12° 102° (ESE) 22:43:37 145.980
TIGRISAT 22 May 22:54:32 22:56:06 12° 282° (WNW) 22:57:39 435.000
VELOX 1 22 May 23:05:45 23:07:41 13° 78° (ENE) 23:09:37 145.980
EO-79 22 May 23:11:44 23:15:50 48° 102° (ESE) 23:19:58 145.935-145.965
ESTCUBE 1 22 May 23:23:35 23:28:02 57° 258° (WSW) 23:32:28 437.505/2401.250
RS-15 22 May 23:27:31 23:35:56 23° 111° (ESE) 23:44:31 29.354- 29.394
JUGNU 22 May 23:28:52 23:34:44 66° 159° (SSE) 23:40:38 437.505
LO-87 22 May 23:30:35 23:32:39 15° 258° (WSW) 23:34:42 145.935 - 145.965
SPROUT 22 May 23:33:08 23:36:55 31° 78° (ENE) 23:40:39 437.525
50 SAT 22 May 23:44:54 23:47:14 17° 79° (ENE) 23:49:32 437.505
DX 1 22 May 23:55:26 23:58:16 17° 78° (ENE) 00:01:04 434.975-435.025
UKube-1 22 May 23:59:06 00:00:03 11° 78° (ENE) 00:00:58 .
SRMSAT 22 May 23:59:48 00:04:19 22° 164° (SSE) 00:08:52 437.500
NANOSAT C BR1 23 May 00:00:12 00:04:04 35° 282° (WNW) 00:07:57 145.865
POLYITAN 1 23 May 00:00:25 00:04:11 31° 282° (WNW) 00:07:59 437.675
YUBILEINY 23 May 00:07:40 00:15:47 43° 93° (E) 00:23:50 435.215
QB50P2 23 May 00:09:20 00:12:33 21° 282° (WNW) 00:15:49 145.880/145.840
DUCHIFAT 1 23 May 00:13:47 00:17:19 26° 282° (WNW) 00:20:52 145.980
VELOX 1 23 May 00:40:04 00:43:52 28° 258° (WSW) 00:47:38 145.980
BUGSAT 1 23 May 00:50:04 00:53:51 34° 281° (WNW) 00:57:41 437.445
Oscar 19 23 May 00:52:55 00:57:54 54° 103° (ESE) 01:02:53 437.125/150
JUGNU 23 May 01:18:09 01:23:48 45° 340° (NNW) 01:29:29 437.505
50 SAT 23 May 01:18:50 01:19:49 11° 258° (WSW) 01:20:49 437.505
DX 1 23 May 01:30:57 01:34:10 20° 258° (WSW) 01:37:23 434.975-435.025
UKube-1 23 May 01:32:00 01:35:47 30° 257° (WSW) 01:39:34 .
Gurwin Techsat 1B 23 May 01:33:29 01:38:47 87° 102° (ESE) 01:44:08 435.225
RS-15 23 May 01:36:32 01:47:52 62° 291° (WNW) 01:59:46 29.354- 29.394
SRMSAT 23 May 01:47:56 01:53:48 53° 159° (SSE) 01:59:40 437.500
ITUPSAT 1 23 May 01:58:09 02:01:51 22° 77° (ENE) 02:05:30 437.325
YUBILEINY 23 May 02:05:44 02:12:09 23° 273° (W) 02:18:36 435.215
BEESAT 23 May 02:33:40 02:38:24 71° 77° (ENE) 02:43:07 436.000
AO-7 23 May 02:53:00 03:01:11 60° 106° (ESE) 03:09:23 .
MOZHAYETS 4 23 May 02:55:21 02:59:53 63° 78° (ENE) 03:04:23
O/OREOS (USA 219) 23 May 02:58:23 03:02:55 61° 104° (ESE) 03:07:27 437.305
JUGNU 23 May 03:09:01 03:13:11 19° 345° (NNW) 03:17:21 437.505
ITAMSAT 1 23 May 03:23:45 03:28:49 53° 283° (WNW) 03:33:55 435.822/435.867
CUBESAT XI-V 23 May 03:30:32 03:33:57 20° 78° (ENE) 03:37:21 437.345
ITUPSAT 1 23 May 03:36:08 03:39:23 18° 257° (WSW) 03:42:38 437.325
SRMSAT 23 May 03:37:09 03:43:02 56° 339° (NNW) 03:48:55 437.500
AO-85 23 May 03:43:07 03:47:48 61° 291° (WNW) 03:52:07 145.980
BEESAT 3 23 May 04:12:58 04:16:46 67° 112° (ESE) 04:20:38 437.485
KKS-1 23 May 04:20:28 04:24:56 83° 77° (ENE) 04:29:22 437.445
AO-7 23 May 04:48:29 04:53:31 18° 287° (WNW) 04:58:36 .
CUTE-I 23 May 04:50:52 04:52:41 12° 104° (ESE) 04:54:29 437.470
JUGNU 23 May 05:01:40 05:03:07 11° 354° (N) 05:04:33 437.505
STARS 23 May 05:03:47 05:08:10 72° 258° (WSW) 05:12:30 437.465
CUBESAT XI-V 23 May 05:07:38 05:11:02 20° 258° (WSW) 05:14:27 437.345
XW-2D 23 May 05:12:00 05:15:00 22° 101° (ESE) 05:18:00 145.860 - 145.880
XW-2B 23 May 05:19:32 05:22:48 27° 101° (ESE) 05:26:05 145.730 - 145.750
BEESAT 2 23 May 05:20:23 05:24:05 44° 292° (WNW) 05:27:50 435.950
SRMSAT 23 May 05:27:53 05:32:29 22° 344° (NNW) 05:37:04 437.500
XW-2C 23 May 05:32:33 05:36:13 46° 101° (E) 05:39:54 145.795 - 145.815
XW-2F 23 May 05:34:53 05:38:34 47° 101° (E) 05:42:14 145.980 - 146.000
DOVE 4 23 May 05:41:13 05:45:25 58° 281° (W) 05:49:53 437.250
NUDT-PHONESAT 23 May 05:47:20 05:51:01 57° 101° (E) 05:54:43 437.300
ISS 23 May 05:49:10 05:50:35 12° 54° (NE) 05:52:00 437.550
KAITUO 1B 23 May 05:49:46 05:53:30 65° 101° (ESE) 05:57:14 145.475/437.950
PCSat 23 May 05:56:49 06:02:07 60° 70° (ENE) 06:07:26 145.827
Tancredo 1 23 May 05:57:40 06:00:25 31° 55° (NE) 06:03:10 437.200
LilacSat-2 23 May 06:05:44 06:09:24 43° 281° (WNW) 06:13:04 437.200
CUTE 1.7 + AOD 2 23 May 06:11:35 06:13:32 13° 102° (ESE) 06:15:30 437.475
STRAND 1 23 May 06:23:24 06:27:34 25° 77° (ENE) 06:31:41 437.568
CUTE-I 23 May 06:27:21 06:32:25 44° 282° (WNW) 06:37:30 437.470
NO-84 23 May 06:32:00 06:35:53 34° 121° (ESE) 06:39:51 435.350 FM
XW-2D 23 May 06:47:59 06:48:54 11° 282° (WNW) 06:49:50 145.860 - 145.880
JUGNU 23 May 06:52:11 06:53:21 11° 5° (N) 06:54:31 437.505
HO-68 23 May 06:59:45 07:06:54 72° 104° (ESE) 07:14:03 435.675
SEEDS 23 May 07:06:57 07:10:59 49° 101° (ESE) 07:15:01 437.485
M-CUBED/EXP-1 PRIME 23 May 07:07:16 07:10:12 17° 75° (ENE) 07:13:04 437.505
SRMSAT 23 May 07:20:26 07:22:27 12° 352° (N) 07:24:28 437.500
ISS 23 May 07:24:28 07:26:52 19° 234° (SW) 07:29:16 437.550
XW-2A 23 May 07:24:32 07:27:47 41° 281° (W) 07:31:03 145.665 - 145.685
AO-73 23 May 07:34:47 07:38:00 19° 102° (ESE) 07:41:14 145.935
CUBEBUG 2 23 May 07:38:36 07:43:17 82° 282° (WNW) 07:48:04 437.445
ZACube-1 23 May 07:45:23 07:49:25 31° 102° (ESE) 07:53:26 437.345
CUTE 1.7 + AOD 2 23 May 07:45:43 07:49:06 24° 281° (WNW) 07:52:29 437.475
UWE-3 23 May 07:57:57 08:02:36 84° 280° (W) 08:07:17 435.000/436.395/437.385
STRAND 1 23 May 08:02:57 08:06:27 19° 257° (WSW) 08:09:56 437.568
NO-84 23 May 08:11:15 08:13:21 13° 303° (WNW) 08:15:27 435.350 FM
AAUSAT CUBESAT 2 23 May 08:19:36 08:23:19 34° 281° (WNW) 08:27:02 437.432
SO-50 23 May 08:37:59 08:41:50 27° 68° (ENE) 08:45:44 436.795
JUGNU 23 May 08:39:20 08:43:20 18° 14° (NNE) 08:47:19 437.505
M-CUBED/EXP-1 PRIME 23 May 08:40:32 08:44:21 25° 254° (WSW) 08:48:04 437.505
EO-88 23 May 08:48:08 08:50:26 16° 101° (ESE) 08:52:45 145.990 - 145.960
Oscar 11 23 May 08:48:09 08:52:20 50° 282° (WNW) 08:56:31 .
HO-68 23 May 08:52:47 08:54:13 11° 286° (WNW) 08:55:40 435.675
AO-73 23 May 09:10:38 09:13:57 20° 282° (WNW) 09:17:16 145.935
DELFI C3 23 May 09:15:51 09:19:45 77° 103° (ESE) 09:23:39 145.870
FO-29 23 May 09:21:02 09:26:25 42° 79° (ENE) 09:31:22 435.910
ZACube-1 23 May 09:23:33 09:25:24 12° 282° (WNW) 09:27:14 437.345
TIGRISAT 23 May 09:28:42 09:32:49 48° 78° (ENE) 09:36:54 435.000
PRISM 23 May 09:46:17 09:50:20 50° 258° (WSW) 09:54:22 437.425
UNISAT 6 23 May 09:59:07 10:03:16 50° 258° (WSW) 10:07:23 437.425
AIST 2D 23 May 10:10:16 10:11:20 11° 79° (E) 10:12:25 435.315
SO-50 23 May 10:19:36 10:22:03 14° 247° (WSW) 10:24:32 436.795
EO-88 23 May 10:21:59 10:23:50 13° 282° (WNW) 10:25:43 145.990 - 145.960
JUGNU 23 May 10:27:09 10:32:45 42° 20° (NNE) 10:38:19 437.505
POLYITAN 1 23 May 10:33:14 10:34:55 12° 78° (ENE) 10:36:35 437.675
NANOSAT C BR1 23 May 10:33:40 10:34:18 10° 78° (ENE) 10:34:56 145.865
QB50P2 23 May 10:40:26 10:43:19 18° 78° (ENE) 10:46:11 145.880/145.840
DUCHIFAT 1 23 May 10:45:06 10:47:17 14° 78° (ENE) 10:49:26 145.980
SRMSAT 23 May 10:59:36 11:03:02 16° 13° (NNE) 11:06:27 437.500
FO-29 23 May 11:09:08 11:11:04 12° 254° (WSW) 11:12:56 435.910
RS-15 23 May 11:11:39 11:18:52 18° 66° (ENE) 11:25:50 29.354- 29.394
VELOX 1 23 May 11:16:04 11:19:01 18° 102° (ESE) 11:21:59 145.980
LO-87 23 May 11:17:34 11:20:25 23° 281° (W) 11:23:17 145.935 - 145.965
EO-79 23 May 11:17:47 11:21:55 60° 78° (ENE) 11:26:02 145.935-145.965
ESTCUBE 1 23 May 11:37:55 11:42:00 35° 282° (WNW) 11:46:05 437.505/2401.250
SPROUT 23 May 11:39:51 11:43:51 39° 102° (ESE) 11:47:53 437.525
AIST 2D 23 May 11:42:01 11:44:17 16° 259° (W) 11:46:32 435.315
DX 1 23 May 12:04:20 12:07:42 22° 102° (ESE) 12:11:05 434.975-435.025
UKube-1 23 May 12:06:04 12:08:19 14° 103° (ESE) 12:10:33 .
NANOSAT C BR1 23 May 12:06:09 12:09:45 28° 258° (WSW) 12:13:20 145.865
POLYITAN 1 23 May 12:07:01 12:10:25 24° 258° (WSW) 12:13:49 437.675
JUGNU 23 May 12:15:54 12:21:49 71° 201° (SSW) 12:27:42 437.505
QB50P2 23 May 12:16:07 12:18:50 17° 258° (WSW) 12:21:32 145.880/145.840
DUCHIFAT 1 23 May 12:19:30 12:22:41 21° 258° (WSW) 12:25:50 145.980
Gurwin Techsat 1B 23 May 12:34:30 12:37:41 16° 77° (ENE) 12:40:50 435.225
YUBILEINY 23 May 12:40:24 12:49:14 83° 87° (E) 12:58:05 435.215
SRMSAT 23 May 12:47:21 12:52:41 35° 19° (NNE) 12:58:01 437.500
VELOX 1 23 May 12:52:06 12:55:12 19° 282° (WNW) 12:58:19 145.980
BUGSAT 1 23 May 12:53:27 12:57:00 29° 258° (WSW) 13:00:31 437.445
50 SAT 23 May 13:01:04 13:03:33 19° 281° (WNW) 13:06:05 437.505
RS-15 23 May 13:19:36 13:31:06 71° 250° (WSW) 13:42:05 29.354- 29.394
Oscar 19 23 May 13:26:29 13:31:35 58° 258° (WSW) 13:36:40 437.125/150
UKube-1 23 May 13:40:39 13:44:03 23° 282° (WNW) 13:47:29 .
DX 1 23 May 13:41:12 13:43:37 15° 282° (WNW) 13:46:04 434.975-435.025
JUGNU 23 May 14:06:05 14:10:59 27° 198° (SSW) 14:15:53 437.505
Gurwin Techsat 1B 23 May 14:12:38 14:17:20 32° 257° (WSW) 14:22:01 435.225
AO-85 23 May 14:17:49 14:19:11 11° 70° (ENE) 14:20:36 145.980
ITUPSAT 1 23 May 14:19:27 14:24:00 44° 103° (ESE) 14:28:34 437.325
ITAMSAT 1 23 May 14:20:31 14:24:41 25° 77° (ENE) 14:28:49 435.822/435.867
SRMSAT 23 May 14:36:00 14:41:56 86° 203° (SSW) 14:47:53 437.500
BEESAT 23 May 14:55:27 15:00:10 59° 282° (WNW) 15:04:52 436.000
